Location: Brachstadt
(48.6975°N, 10.6755°E)
Time: 05:24:33
(UTC+00:00)

SJ 16-02 - Pass Details

Date: 18 September 2020
Orbit: 606 x 616 km, 75.0° (Epoch: 29 October)

Event Time Altitude Azimuth Distance (km) Brightness Sun altitude
Rises 17:58:01 0° 208° (SSW) 2,854 5.0 -6.6°
Reaches altitude 10° 18:00:16 10° 212° (SSW) 1,953 4.2 -6.9°
Maximum altitude 18:04:36 64° 294° (WNW) 677 1.9 -7.6°
Drops below altitude 10° 18:08:57 10° 16° (NNE) 1,967 3.9 -8.3°
Sets 18:11:13 0° 20° (NNE) 2,876 4.7 -8.7°
